TimeCDT,TemperatureF,Dew PointF,Humidity,Sea Level PressureIn,VisibilityMPH,Wind Direction,Wind SpeedMPH,Gust SpeedMPH,PrecipitationIn,Events,Conditions,WindDirDegrees,DateUTC
12:58 AM,67.1,64.4,91,30.04,10.0,NW,4.6,-,N/A,,Clear,320,2013-05-11 05:58:00
1:58 AM,65.5,64.2,96,30.03,10.0,WNW,2.3,-,N/A,,Clear,300,2013-05-11 06:58:00
2:43 AM,62.6,62.6,100,30.01,1.8,Calm,Calm,-,N/A,,Clear,0,2013-05-11 07:43:00
2:48 AM,62.6,62.6,100,30.01,1.2,Calm,Calm,-,N/A,,Clear,0,2013-05-11 07:48:00
2:53 AM,62.6,62.6,100,30.01,2.0,Calm,Calm,-,N/A,,Clear,0,2013-05-11 07:53:00
2:58 AM,62.1,61.9,99,30.01,5.0,Calm,Calm,-,N/A,,Clear,0,2013-05-11 07:58:00
3:03 AM,60.8,60.8,100,30.00,2.5,Calm,Calm,-,N/A,,Clear,0,2013-05-11 08:03:00
3:08 AM,60.8,60.8,100,30.00,1.5,Calm,Calm,-,N/A,,Clear,0,2013-05-11 08:08:00
3:13 AM,60.8,60.8,100,30.00,1.5,Calm,Calm,-,N/A,,Clear,0,2013-05-11 08:13:00
3:18 AM,60.8,60.8,100,30.00,2.5,Calm,Calm,-,N/A,,Clear,0,2013-05-11 08:18:00
3:23 AM,60.8,60.8,100,30.00,4.0,Calm,Calm,-,N/A,,Clear,0,2013-05-11 08:23:00
3:28 AM,60.8,60.8,100,30.00,1.8,South,1.2,-,N/A,,Clear,190,2013-05-11 08:28:00
3:33 AM,60.8,60.8,100,30.00,0.5,South,1.2,-,N/A,Fog,Fog,180,2013-05-11 08:33:00
3:38 AM,60.8,60.8,100,30.00,0.2,South,1.2,-,N/A,Fog,Fog,170,2013-05-11 08:38:00
3:43 AM,60.8,60.8,100,29.99,0.5,Calm,Calm,-,N/A,Fog,Fog,50,2013-05-11 08:43:00
3:48 AM,60.8,60.8,100,30.00,1.0,SSE,1.2,-,N/A,,Clear,150,2013-05-11 08:48:00
3:53 AM,60.8,60.8,100,30.00,1.5,South,1.2,-,N/A,,Clear,180,2013-05-11 08:53:00
3:58 AM,60.8,60.8,100,30.00,0.5,South,2.3,-,N/A,Fog,Fog,180,2013-05-11 08:58:00
4:03 AM,60.8,60.8,100,29.99,0.2,South,2.3,-,N/A,Fog,Fog,170,2013-05-11 09:03:00
4:08 AM,60.8,60.8,100,29.99,0.5,South,2.3,-,N/A,Fog,Fog,180,2013-05-11 09:08:00
4:13 AM,60.8,60.8,100,29.99,1.8,Calm,Calm,-,N/A,,Clear,170,2013-05-11 09:13:00
4:18 AM,60.8,60.8,100,29.99,0.8,South,2.3,-,N/A,,Clear,190,2013-05-11 09:18:00
4:23 AM,60.8,60.8,100,29.98,0.5,South,3.5,-,N/A,Fog,Fog,180,2013-05-11 09:23:00
4:38 AM,60.8,60.8,100,29.99,1.2,South,3.5,-,N/A,,Clear,190,2013-05-11 09:38:00
4:43 AM,60.8,60.8,100,29.98,6.0,South,4.6,-,N/A,,Clear,180,2013-05-11 09:43:00
4:58 AM,59.9,59.7,99,29.99,7.0,South,4.6,-,N/A,,Clear,180,2013-05-11 09:58:00
5:23 AM,60.8,59.0,94,29.98,2.5,South,4.6,-,N/A,,Clear,180,2013-05-11 10:23:00
5:28 AM,60.8,59.0,94,29.98,2.0,South,4.6,-,N/A,,Clear,180,2013-05-11 10:28:00
5:33 AM,60.8,59.0,94,29.99,1.5,South,4.6,-,N/A,,Clear,190,2013-05-11 10:33:00
5:43 AM,59.0,59.0,100,29.99,2.5,SSE,4.6,-,N/A,,Clear,160,2013-05-11 10:43:00
5:48 AM,60.8,59.0,94,29.99,6.0,South,5.8,-,N/A,,Clear,170,2013-05-11 10:48:00
5:53 AM,60.8,60.8,100,29.99,1.2,South,4.6,-,N/A,,Clear,170,2013-05-11 10:53:00
5:58 AM,60.8,59.0,94,30.00,0.5,South,3.5,-,N/A,Fog,Fog,170,2013-05-11 10:58:00
6:08 AM,59.0,59.0,100,29.99,1.5,South,4.6,-,N/A,,Clear,180,2013-05-11 11:08:00
6:13 AM,59.0,59.0,100,30.00,2.5,South,4.6,-,N/A,,Clear,180,2013-05-11 11:13:00
6:18 AM,60.8,59.0,94,30.00,2.0,South,3.5,-,N/A,,Clear,180,2013-05-11 11:18:00
6:23 AM,60.8,59.0,94,30.00,1.8,South,2.3,-,N/A,,Clear,180,2013-05-11 11:23:00
6:33 AM,60.8,60.8,100,30.00,1.2,South,2.3,-,N/A,,Clear,190,2013-05-11 11:33:00
6:38 AM,60.8,60.8,100,30.00,1.5,South,2.3,-,N/A,,Clear,190,2013-05-11 11:38:00
6:43 AM,60.8,60.8,100,30.00,5.0,South,2.3,-,N/A,,Clear,190,2013-05-11 11:43:00
6:58 AM,62.6,62.2,99,30.01,10.0,South,2.3,-,N/A,,Clear,170,2013-05-11 11:58:00
7:58 AM,67.3,66.9,99,30.03,10.0,South,8.1,-,N/A,,Partly Cloudy,180,2013-05-11 12:58:00
8:58 AM,70.5,65.5,84,30.05,10.0,SSW,8.1,-,N/A,,Clear,200,2013-05-11 13:58:00
9:28 AM,71.6,64.4,78,30.05,10.0,SW,5.8,-,N/A,Rain,Light Rain,230,2013-05-11 14:28:00
9:58 AM,69.3,66.6,91,30.07,8.0,West,5.8,-,0.02,Rain,Light Rain,260,2013-05-11 14:58:00
10:28 AM,68.0,68.0,100,30.05,7.0,West,6.9,-,N/A,Rain,Light Rain,280,2013-05-11 15:28:00
10:33 AM,68.0,68.0,100,30.05,6.0,West,8.1,-,N/A,Rain,Light Rain,270,2013-05-11 15:33:00
10:38 AM,68.0,66.2,94,30.05,5.0,WSW,5.8,-,N/A,Rain,Light Rain,250,2013-05-11 15:38:00
10:53 AM,68.0,66.2,94,30.04,8.0,SW,3.5,-,N/A,Rain,Light Rain,220,2013-05-11 15:53:00
10:58 AM,68.2,66.4,94,30.05,9.0,SSW,4.6,-,0.10,Rain,Light Rain,200,2013-05-11 15:58:00
11:44 AM,68.0,66.2,94,30.03,10.0,South,8.1,-,N/A,,Clear,190,2013-05-11 16:44:00
11:49 AM,69.8,68.0,94,30.02,10.0,South,6.9,-,N/A,,Partly Cloudy,170,2013-05-11 16:49:00
11:58 AM,69.1,68.0,96,30.02,10.0,SSE,8.1,-,0.02,,Scattered Clouds,150,2013-05-11 16:58:00
12:58 PM,69.8,68.0,94,30.05,10.0,NW,5.8,-,N/A,,Mostly Cloudy,320,2013-05-11 17:58:00
1:03 PM,69.8,68.0,94,30.04,10.0,WNW,4.6,-,N/A,,Mostly Cloudy,300,2013-05-11 18:03:00
1:13 PM,69.8,66.2,88,30.04,10.0,WNW,3.5,-,N/A,,Mostly Cloudy,290,2013-05-11 18:13:00
1:23 PM,69.8,66.2,88,30.03,10.0,Variable,3.5,-,N/A,,Mostly Cloudy,0,2013-05-11 18:23:00
1:28 PM,69.8,64.4,83,30.03,10.0,Calm,Calm,-,N/A,,Mostly Cloudy,350,2013-05-11 18:28:00
1:58 PM,70.9,64.8,81,30.04,10.0,SSE,3.5,-,N/A,,Mostly Cloudy,160,2013-05-11 18:58:00
2:28 PM,71.6,64.4,78,30.01,10.0,Variable,3.5,-,N/A,,Mostly Cloudy,0,2013-05-11 19:28:00
2:58 PM,71.2,64.9,80,30.01,10.0,West,2.3,-,N/A,,Overcast,270,2013-05-11 19:58:00
3:58 PM,73.4,63.1,70,29.99,10.0,SW,2.3,-,N/A,,Overcast,230,2013-05-11 20:58:00
4:58 PM,73.2,63.7,72,30.00,10.0,WSW,3.5,-,N/A,,Mostly Cloudy,240,2013-05-11 21:58:00
5:18 PM,73.4,64.4,73,29.98,10.0,SSW,4.6,-,N/A,,Mostly Cloudy,210,2013-05-11 22:18:00
5:58 PM,72.3,65.5,79,29.98,10.0,South,5.8,-,N/A,,Clear,170,2013-05-11 22:58:00
6:58 PM,70.3,66.0,86,29.99,10.0,South,8.1,-,N/A,,Partly Cloudy,190,2013-05-11 23:58:00
7:58 PM,68.9,66.2,91,30.00,10.0,South,6.9,-,N/A,,Clear,190,2013-05-12 00:58:00
8:58 PM,68.7,66.6,93,30.02,10.0,WSW,4.6,-,N/A,,Clear,250,2013-05-12 01:58:00
9:58 PM,67.8,66.7,96,30.02,10.0,West,2.3,-,N/A,,Clear,280,2013-05-12 02:58:00
10:58 PM,66.7,66.6,99,30.03,10.0,WSW,3.5,-,N/A,,Clear,250,2013-05-12 03:58:00
11:58 PM,66.2,65.8,99,30.02,10.0,West,3.5,-,N/A,,Clear,280,2013-05-12 04:58:00